Location: Kumla
(59.1265°N, 15.1401°E)
Time: 16:01:02
(UTC+01:00)

Explorer 7 - All Passes

Search period start: 03 December 2023 00:00
Search period end: 13 December 2023 00:00
Orbit: 472 x 640 km, 50.3° (Epoch: 02 December)

Date Brightness Start Highest point End Pass type
(mag) Time Alt. Az. Time Alt. Az. Time Alt. Az.
03 Dec - 17:47:06 10° SSW 17:49:36 17° SSE 17:52:07 10° ESE visible
03 Dec - 19:25:48 10° SW 19:28:39 21° S 19:31:34 10° SE visible
03 Dec - 21:05:42 10° SW 21:07:40 14° SSW 21:09:40 10° S night (unlit)
04 Dec - 17:43:16 10° SW 17:45:55 19° SSE 17:48:36 10° ESE visible
04 Dec - 19:22:12 10° WSW 19:25:00 20° S 19:27:51 10° SE visible
04 Dec - 21:02:33 10° SW 21:03:57 12° SSW 21:05:22 10° S night (unlit)
05 Dec - 16:02:10 10° S 16:03:19 11° SSE 16:04:29 10° SE visible
05 Dec - 17:39:28 10° SW 17:42:14 20° S 17:45:01 10° ESE visible
05 Dec - 19:18:38 10° WSW 19:21:19 19° SSW 19:24:02 10° SE visible
06 Dec - 15:57:45 10° S 15:59:34 13° SSE 16:01:22 10° SE visible
06 Dec - 17:35:42 10° SW 17:38:32 21° S 17:41:22 10° SE visible
06 Dec - 19:15:04 10° WSW 19:17:35 18° SSW 19:20:09 10° SSE visible
07 Dec - 15:53:36 10° SSW 15:55:47 15° SSE 15:57:58 10° ESE visible
07 Dec - 17:31:58 10° SW 17:34:48 21° S 17:37:40 10° SE visible
07 Dec - 19:11:33 10° WSW 19:13:50 16° SSW 19:16:09 10° SSE visible
08 Dec - 15:49:34 10° SSW 15:52:01 17° SSE 15:54:27 10° ESE visible
08 Dec - 17:28:14 10° SW 17:31:04 21° S 17:33:54 10° SE visible
08 Dec - 19:08:06 10° SW 19:10:03 14° SSW 19:12:01 10° S visible
09 Dec - 15:45:35 10° SSW 15:48:13 18° SSE 15:50:51 10° ESE daylight
09 Dec - 17:24:31 10° SW 17:27:17 20° S 17:30:05 10° SE visible
09 Dec - 19:04:49 10° SW 19:06:14 12° SSW 19:07:38 10° S visible
10 Dec - 14:04:32 10° SSE 14:05:31 11° SSE 14:06:30 10° SE daylight
10 Dec - 15:41:40 10° SW 15:44:25 20° S 15:47:10 10° ESE daylight
10 Dec - 17:20:48 10° WSW 17:23:29 19° S 17:26:11 10° SE visible
11 Dec - 13:59:53 10° S 14:01:38 13° SSE 14:03:23 10° SE daylight
11 Dec - 15:37:47 10° SW 15:40:37 21° S 15:43:25 10° SE daylight
11 Dec - 17:17:07 10° WSW 17:19:40 18° SSW 17:22:12 10° SSE visible
12 Dec - 13:55:35 10° SSW 13:57:45 15° SSE 13:59:55 10° ESE daylight
12 Dec - 15:33:54 10° SW 15:36:46 21° S 15:39:37 10° SE daylight
12 Dec - 17:13:28 10° WSW 17:15:47 16° SSW 17:18:08 10° SSE visible
